Weather in Svyatitsa

Russia / Kirov Oblast     58°11′48″N   51°35′07″E
temp.,
°C
wind,
m/s
gust,
m/s
humid.,
%
clouds,
%
prec.,
mm/h
press.,
hPa
HPBL,
m
16 may, sun
sun1600:00+18ssw4136893 0.0 1015294
03:00+16ssw4107575 0.0 1015178
06:00+19ssw510705 0.0 1015259
09:00+24ssw610505 0.0 1015648
12:00+28ssw8143658 0.0 10141862
15:00+28sw7144260 0.0 10132245
18:00+24sw5115686 0.0 1013442
21:00+18ssw348691 4.3 101469
17 may, mon
mon1700:00+17sw2389100 2.6 101443
03:00+15wsw358767 2.6 101592
06:00+17sw35770 0.0 1016217
09:00+21wsw68580 0.0 10171115
12:00+24wsw6848100 0.0 10171825
15:00+24w6845100 0.0 10162088
18:00+21wnw496292 0.0 1017278
21:00+17nw3773100 0.0 1018119
18 may, tue
tue1800:00+15n227799 0.0 101923
03:00+13nne228284 0.0 102013
06:00+16nne2370100 0.0 1021217
09:00+19n335413 0.0 1021813
12:00+22n33415 0.0 10211300
15:00+24ne22375 0.0 10211469
18:00+22ene23535 0.0 102053
21:00+16e35665 0.0 102161
19 may, wed
wed1900:00+14ese411776 0.0 1022240
03:00+12ese4108413 0.0 1023203
06:00+15se587477 0.0 1023290
09:00+20se565692 0.0 1023789
12:00+22se5644100 0.0 10221256
15:00+24se4640100 0.0 10211464
18:00+20ese4859100 0.0 1020217
21:00+16se41066100 0.0 1020181
20 may, thu
thu2000:00+14se497099 0.0 1020146
03:00+13se4117085 0.0 1019191
06:00+17sse5116964 0.0 1019316
09:00+22sse794751 0.0 1018966
12:00+24sse710391 0.0 10171679
15:00+25s710440 0.0 10162178
18:00+21ssw6116093 0.0 1015529
21:00+16s512861 0.6 1016390